Location: Arrington
(35.8681°N, 86.7092°W)
Time: 15:05:45
(UTC+00:00)

Envisat - Visible Passes

Search period start: 26 September 2020 00:00
Search period end: 06 October 2020 00:00
Orbit: 764 x 766 km, 98.1° (Epoch: 26 September)

Date Brightness Start Highest point End Pass type
(mag) Time Alt. Az. Time Alt. Az. Time Alt. Az.
27 Sep 6.0 00:08:26 10° SW 00:12:10 21° W 00:15:57 10° NW visible
27 Sep 6.1 10:41:10 10° NE 10:44:24 17° E 10:47:37 10° SE visible
29 Sep 6.7 00:36:40 10° WSW 00:37:52 11° W 00:39:03 10° WNW visible
29 Sep 5.3 11:05:33 10° NE 11:10:01 30° E 11:14:27 10° SSE visible
29 Sep 5.6 23:56:31 10° SSW 00:00:44 26° W 00:04:59 10° NW visible
30 Sep 6.3 10:30:43 10° ENE 10:32:56 13° E 10:35:08 10° ESE visible
02 Oct 6.3 00:23:40 10° SW 00:26:23 14° W 00:29:06 10° WNW visible
02 Oct 5.7 10:54:31 10° NE 10:58:35 24° E 11:02:38 10° SSE visible
02 Oct 5.1 23:44:45 10° SSW 23:49:19 34° W 23:53:55 10° NNW visible
05 Oct 6.1 00:11:24 10° SW 00:14:55 19° W 00:18:28 10° NW visible
05 Oct 6.1 10:43:39 10° NE 10:47:09 18° E 10:50:37 10° SE visible
